Hourly Data Report for February 26, 2004

SHERBROOKE A
QUEBEC

45°26'00.000" N
71°41'00.000" W
241.40 m
7028124
71610
YSC

Download Data

Hourly Data (February 2004)
Hourly Data Report for February 26, 2004
TIME
LST
Temp Definition
°C
Dew Point Definition
°C
Rel Hum Definition
%
Precip. Amount Definition
mm

Wind Dir Definition
10's deg

Wind Spd Definition
km/h
Visibility Definition
km
Stn Press Definition
kPa
Hmdx Definition


Wind Chill Definition


Weather Definition


00:00 -15.6 -19.3 73   25 6 15.0 99.42   -20  
01:00 -12.7 -17.2 69   27 11 15.0 99.47   -19  
02:00 -14.5 -18.7 70   25 7 15.0 99.54   -19  
03:00 -15.4 -19.7 70   21 6 15.0 99.60   -20  
04:00 -15.7 -20.2 68   19 7 15.0 99.63   -21  
05:00 -15.3 -19.2 72   20 9 15.0 99.72   -21  
06:00 -16.2 -20.0 72     0 15.0 99.81      
07:00 -15.3 -19.4 71   30 11 15.0 99.91   -22  
08:00 -13.9 -19.4 63   28 11 24.1 99.95   -20 Clear
09:00 -12.0 -18.7 57   29 11 24.1 100.00   -18 Clear
10:00 -10.7 -18.7 52   26 13 24.1 99.97   -17 Clear
11:00 -9.3 -18.9 46   27 13 24.1 99.93   -15 Clear
12:00 -7.7 -19.6 38   29 11 24.1 99.89   -13 Clear
13:00 -6.7 -19.7 35   31 17 24.1 99.83   -13 Clear
14:00 -6.2 -21.6 28   34 15 24.1 99.83   -12 Clear
15:00 -6.4 -21.5 29   35 13 24.1 99.88   -12 Clear
16:00 -6.7 -21.2 31   30 19 24.1 99.95   -14 Clear
17:00 -7.6 -21.5 32   30 15 24.1 100.00   -14 Clear
18:00 -8.9 -22.4 33   21 6 15.0 100.07   -12  
19:00 -11.2 -23.1 37   27 4 15.0 100.09   -14  
20:00 -11.7 -23.5 37     0 15.0 100.10      
21:00 -14.4 -23.8 45   23 6 15.0 100.05   -19  
22:00 -16.3 -24.8 48   10 7 15.0 99.99   -21  
23:00 -19.2 -25.5 57   9 6 15.0 99.94   -24  

Notes on Data Quality.

Legend

  • E = Estimated
  • M = Missing
  • NA = Not Available*
  • [empty] = Indicates an unobserved value
Date modified: